Location: Trout Lake
(45.9980°N, 121.5270°W)
Time: 14:26:24
(UTC-07:00)

Daily predictions for brighter satellites

Satellite Brightness Start Highest point End
(mag) Time Altitude Azimuth Time Altitude Azimuth Time Altitude Azimuth
Cosmos 1898 Rocket 3.5 19:23:40 10° NNW 19:28:53 73° ENE 19:34:02 10° SSE
Cosmos 1943 Rocket 2.2 19:24:53 10° NNW 19:30:29 79° ENE 19:36:05 10° SSE
Cosmos 1814 Rocket 4.5 19:30:34 10° S 19:35:17 37° ESE 19:40:01 10° NE
Lacrosse 5 3.5 19:31:14 10° WNW 19:35:50 35° SW 19:40:23 10° SSE
H-2A R/B 3.1 19:34:20 10° SE 19:37:51 43° ENE 19:41:26 10° N
SKYMED 2 4.1 19:33:46 10° N 19:38:04 65° WNW 19:42:22 10° SSW
USA 81 4.3 19:33:29 10° N 19:38:35 47° E 19:43:40 10° SSE
Meteor 2-5 Rocket 4.0 19:33:18 10° N 19:39:02 50° ENE 19:44:38 10° SSE
Cosmos 990 Rocket 4.0 19:36:12 10° NNW 19:41:21 61° ENE 19:46:26 10° SE
Cosmos 2228 3.7 19:39:35 10° SSE 19:43:32 34° E 19:47:28 10° NNE
Cosmos 1953 Rocket 3.5 19:40:04 10° N 19:44:24 66° E 19:48:41 10° SSE
BREEZE-M DEB 4.4 19:32:34 10° WNW 19:45:08 64° SW 19:48:43 10° SE
Cosmos 2058 Rocket 3.5 19:41:23 10° SSE 19:45:24 38° E 19:49:28 10° NNE
Cosmos 1606 Rocket 3.5 19:41:47 10° S 19:46:06 66° E 19:50:24 10° NNE
Cosmos 2150 Rocket 4.1 19:42:10 10° NNW 19:47:29 70° ENE 19:52:50 10° SSE
Cosmos 389 Rocket 2.4 19:45:01 10° S 19:48:29 70° E 19:51:59 10° NNE
BREEZE M DEB (TANK) 2.9 19:41:04 10° WSW 19:50:16 86° NNW 19:53:15 10° ENE
Cosmos 332 Rocket 4.0 19:47:59 10° SSW 19:52:52 81° WNW 19:57:46 10° NNE
Envisat 3.9 19:49:43 10° ESE 19:54:02 29° ENE 19:58:22 10° N
Cosmos 1707 2.7 19:50:15 10° N 19:54:11 72° E 19:58:06 10° SSE
Cosmos 371 Rocket 3.4 19:53:48 10° SSW 19:58:40 85° WNW 20:03:36 10° NNE
COSMOS 2406 4.1 19:56:48 10° SSE 20:01:24 26° ESE 20:06:02 10° NE
FengYun 1-2 T 4.3 19:57:48 10° SSE 20:03:25 88° ENE 20:09:02 10° NNW
Cosmos 1825 Rocket 4.4 19:59:42 10° NNW 20:04:01 55° W 20:08:20 10° S
Cosmos 1340 Rocket 3.5 20:04:27 10° NNW 20:08:27 58° W 20:12:26 10° S
Cosmos 2369 Rocket 4.0 20:04:25 10° NW 20:09:24 32° WSW 20:14:19 10° SSW
Cosmos 1656 Rocket 3.6 20:05:12 10° NNW 20:10:53 74° ENE 20:16:28 10° SSE
Cosmos 2298 Rocket 4.4 20:06:18 10° NNW 20:11:38 68° WSW 20:16:53 10° S
Cosmos 1937 Rocket 4.0 20:09:29 10° NNW 20:14:45 64° WSW 20:19:57 10° S
Cosmos 1271 Rocket 3.9 20:11:29 10° SSW 20:15:06 44° WNW 20:18:48 10° N
Cosmos 468 Rocket 4.4 20:10:11 10° SSW 20:15:22 69° WNW 20:20:38 10° NNE
Cosmos 841 Rocket 3.5 20:11:24 10° S 20:16:25 56° ESE 20:21:27 10° NNE
Meteor 2-13 Rocket 4.4 20:13:01 10° S 20:19:07 86° E 20:25:13 10° N
HJ-1C 3.7 20:16:44 10° S 20:20:03 67° WSW 20:23:25 10° NNW
Cosmos 1674 4.2 20:19:27 10° NNE 20:21:54 18° ENE 20:21:54 18° ENE
BREEZE-M DEB (TANK) 4.0 20:12:16 10° SW 20:23:34 41° SSE 20:26:09 23° ESE
Cosmos 1356 Rocket 3.4 20:19:24 10° N 20:23:42 80° ENE 20:28:00 10° SSE
Cosmos 1378 3.9 20:20:22 10° NNW 20:24:04 54° W 20:27:45 10° S
ATLAS 2AS CENTAUR R/B 4.1 20:17:29 10° NW 20:24:33 31° NNE 20:29:44 16° ENE
Cosmos 1805 4.1 20:26:17 27° ESE 20:27:01 29° E 20:30:25 10° NNE
YAOGAN 6 3.8 20:30:23 24° ENE 20:30:23 24° ENE 20:33:17 10° NNE
In-Cosmos 22 4.2 20:25:41 10° N 20:31:21 69° ENE 20:37:03 10° SSE
CZ-2D R/B 3.2 20:28:00 10° SSE 20:31:48 87° WSW 20:35:39 10° NNW
Helios 1A 4.3 20:34:13 22° ENE 20:34:24 22° ENE 20:37:41 10° NNE
NOSS 3-1 (A) 4.0 20:26:53 10° NW 20:34:25 84° NE 20:41:02 18° SE
Centaur D AC-29 4.0 20:32:20 10° SW 20:35:38 12° SSW 20:37:54 10° S
Cosmos 1544 3.1 20:32:24 10° S 20:35:55 52° E 20:39:28 10° NNE
Cosmos 1763 Rocket 3.6 20:33:15 10° SSW 20:38:21 74° WNW 20:43:33 10° NNE
SJ-6B 4.3 20:36:46 10° SSW 20:40:32 38° W 20:44:16 10° NNW
Cosmos 1953 4.0 20:43:48 19° NE 20:43:48 19° NE 20:45:27 10° NNE
Cosmos 2154 Rocket 4.1 20:36:11 10° SSE 20:42:06 49° E 20:48:06 10° NNE
Resurs 1-3 3.5 20:39:14 13° SSE 20:43:05 90° SW 20:47:30 10° NNW
Cosmos 540 Rocket 3.5 20:39:29 10° S 20:44:23 50° ESE 20:49:20 10° NNE
NOSS 3-1 (C) 4.3 20:37:09 10° NW 20:44:39 71° WSW 20:52:06 14° SSE
Cosmos 2074 Rocket 4.0 20:41:56 10° S 20:48:09 82° W 20:54:23 10° N
Cosmos 304 Rocket 3.8 20:44:27 10° SSW 20:49:13 83° WNW 20:54:04 10° NNE
Cosmos 2341 Rocket 4.4 20:46:35 24° SE 20:49:45 40° E 20:55:29 10° NNE
Meteor 1-24 Rocket 4.1 20:46:27 10° NNW 20:52:27 69° W 20:58:14 10° S
USA 186 2.0 20:54:24 49° WNW 20:54:24 49° WNW 20:56:29 10° NNW
Elektron 1 3.6 20:53:35 10° NW 20:57:01 88° SW 20:57:04 86° S
Resurs 01 Rocket 2.2 20:55:41 11° S 20:59:46 57° W 21:04:09 10° NNW
Spot 2 Rocket 3.7 20:56:14 14° S 21:00:39 70° WSW 21:05:42 10° NNW
GEOS 3 Rocket 3.8 20:57:34 10° NE 21:02:51 52° ESE 21:08:04 10° SSW
USA 267 4.4 20:58:36 14° ENE 21:03:24 34° N 21:09:09 10° WNW
Cosmos 546 4.5 20:59:31 10° WNW 21:03:27 81° SSW 21:03:45 73° SSE
Cosmos 836 Rocket 4.4 20:58:38 10° SSW 21:03:54 78° ESE 21:09:11 10° NNE
GP-B 3.1 21:01:38 10° N 21:06:06 81° W 21:08:59 21° S
Cosmos 1356 3.4 21:04:52 10° NNW 21:08:14 79° NW 21:08:14 79° NW
Cosmos 1076 Rocket 4.3 21:05:20 10° N 21:08:40 37° NE 21:08:40 37° NE
SJ-11-01 4.2 21:11:06 45° SSE 21:12:35 89° W 21:17:20 10° NNW
Nadezhda 3 Rocket 3.9 21:06:29 10° N 21:12:51 90° W 21:16:51 24° S
Cosmos 2084 4.0 21:11:25 10° WSW 21:15:19 50° NW 21:17:37 21° NNE
Cosmos 1125 Rocket 3.9 21:16:20 10° NNW 21:21:33 61° WSW 21:23:46 34° S
Cosmos 1812 Rocket 3.9 21:18:33 14° SSW 21:22:16 66° W 21:26:45 10° N
Cosmos 1980 Rocket 3.8 21:18:33 10° N 21:22:42 20° NE 21:22:52 20° NE
FALCON 9 R/B 3.5 21:19:05 10° SW 21:22:28 29° S 21:22:28 29° S
Cosmos 1697 Rocket 3.7 21:17:58 10° N 21:22:56 30° NE 21:23:01 30° NE
Cosmos 1758 3.8 21:24:36 51° N 21:24:36 51° N 21:27:39 10° N
Cosmos 1939 Rocket 3.6 21:30:10 46° WSW 21:30:31 47° W 21:34:19 10° NNW
ERS-1 Rocket 3.2 21:31:33 54° NE 21:31:33 54° NE 21:36:00 10° N
H-2A R/B 3.2 21:32:29 27° NE 21:32:29 27° NE 21:35:38 10° N
SPOT 5 4.4 21:34:27 22° NNE 21:34:27 22° NNE 21:36:28 10° N
Envisat 4.2 21:29:09 15° SSW 21:32:54 40° W 21:37:41 10° NNW
Okean 3 Rocket 3.8 21:32:04 10° N 21:36:03 69° NNW 21:36:03 69° NNW
Cosmos 1656 4.0 21:31:09 10° NNW 21:36:31 49° NE 21:36:31 49° NE
Meteor 1-21 Rocket 4.4 21:37:13 10° NNW 21:42:58 71° W 21:44:19 52° SSW
Meteor 2-21 4.3 21:43:23 71° ESE 21:43:28 71° E 21:49:35 10° NNE
SL-16 R/B 4.3 21:42:17 10° N 21:45:00 13° NE 21:45:11 13° NE
COSMOS 2406 3.9 21:39:46 10° SW 21:45:20 54° WNW 21:51:00 10° NNE
Cosmos 1295 Rocket 4.3 21:44:29 50° S 21:46:12 88° W 21:52:19 10° N
Cosmos 1727 Rocket 4.4 21:41:35 10° N 21:47:02 49° NE 21:47:02 49° NE
SL-8 Rocket 3.8 21:51:48 74° ENE 21:51:48 74° ENE 21:57:41 10° NNE
NOAA 11 4.1 21:51:58 77° SW 21:52:08 78° WSW 21:57:36 10° NNW
Meteor 2-15 Rocket 4.3 21:52:37 10° N 21:58:33 83° NE 21:58:33 83° NE
ARGOS 3.4 22:01:35 63° N 22:01:35 63° N 22:06:08 10° NNW
Cosmos 2369 3.8 21:56:06 10° NNW 22:01:14 74° NNW 22:01:14 74° NNW
Cosmos 1809 Rocket 4.5 22:06:41 71° WSW 22:07:11 75° W 22:13:20 10° N
MetOp-A 4.4 22:09:01 64° NW 22:09:01 64° NW 22:13:40 10° NNW
ATLAS 2AS CENTAUR R/B 2.8 22:08:42 10° NW 22:16:50 81° NE 22:17:09 79° E
USA 267 3.8 22:45:57 50° NNE 22:45:57 50° NNE 22:51:52 10° NW
Terra 4.1 22:54:53 19° N 22:54:53 19° N 22:56:17 10° N
Cosmos 2322 Rocket 4.0 22:49:43 10° NNW 22:52:22 23° N 22:52:22 23° N
Cosmos 2360 Rocket 4.4 23:01:16 10° N 23:03:24 17° NNE 23:03:24 17° NNE
BREEZE-M DEB (TANK) 4.5 22:55:54 10° WNW 23:04:25 45° WNW 23:04:25 45° WNW
Cosmos 1697 Rocket 4.3 23:01:41 10° NW 23:04:45 31° NW 23:04:45 31° NW
Cosmos 1980 Rocket 3.8 23:01:45 10° NNW 23:04:37 31° NNW 23:04:37 31° NNW
H-2A R/B 4.2 23:13:07 22° NW 23:13:07 22° NW 23:15:10 10° NNW
SL-16 R/B 4.2 23:24:47 10° NNW 23:27:02 24° NNW 23:27:02 24° NNW
